map of WAA home
Great Circle Mapper logo
WAA - Airport
Location
City:  Wales, Alaska, United States
ICAO / IATA:PAIW / WAA
FAA:IWK

Details
Type:Airport (Airfield)
Use:Public/Civil
Latitude:6537'21"N (65.622556)
Longitude:16805'42"W (-168.094971)
Datum:WGS 1984
Elevation:25 ft (8 m)
Variation:9.51E (WMM2015 magnetic declination)
-0.33 annual change
Runways:1
Longest:3990 × 75 ft (1216 × 23 m)

Time
Time Zone:UTC-9 (DST-8)
Local Time:

Weather
METAR:PAIW 040058Z AUTO 17014G20KT 10SM OVC012 12/09 A2979 RMK AO2 SLP088 T01170094

Related Locations
Nearby:
Farthest:NZSP: 10739 mi / 17283 km
Amundsen-Scott South Pole Station [Jack F. Paulus Skiway], AQ

Find:

   beyond  
but within

Other Information
Maps:
NOTAMs:
Links:
Sources:

  
flag of United States
flag of Alaska
  

Sectional Chart

Flight Planning
at skyvector.com

Satellite Image

Google Maps Satellite view

 

Copyright © 2004-2015 Karl L. Swartz. All rights reserved.
The Great Circle Mapper name and logo are trademarks of the Great Circle Mapper.
All other trademarks mentioned herein belong to their respective owners.
Please see credits for attibutions and further copyright information.

  Follow gcmap on Facebook Follow gcmap on Twitter Follow gcmap on Google+

hCard Microformat

Geo Microformat